Location: Newark
(40.7500°N, 111.8667°W)
Time: 03:10:46
(UTC+00:00)

Hubble Space Telescope - Visible Passes

Search period start: 23 July 2019 00:00
Search period end: 02 August 2019 00:00
Orbit: 536 x 540 km, 28.5° (Epoch: 22 July)

Date Brightness Start Highest point End Pass type
(mag) Time Alt. Az. Time Alt. Az. Time Alt. Az.
28 Jul 3.2 11:44:59 10° S 11:45:17 10° SSE 11:45:36 10° SSE visible
29 Jul 3.0 11:33:13 10° S 11:34:36 11° SSE 11:35:59 10° SSE visible
30 Jul 3.0 11:22:06 10° SSW 11:23:55 13° S 11:25:45 10° SE visible
31 Jul 2.8 11:11:58 12° SSW 11:13:15 14° S 11:15:21 10° SE visible
01 Aug 2.7 11:01:59 14° S 11:02:36 14° S 11:04:51 10° SE visible
